Temp
-12 -13 -13 -14 -14 -13 -13 -14 -13 -14 -13 -13 -13 -13 -13 -13 -13 -13 -13 -13 -13 -13 -13 -13 -13 -13 -13 -13 -14 -13 -13 -14 -14 -13 -13 -13 -13 -14 -14 -13 -13 -13 -13
-13 -13 -13 -12 -12 -13 -14 -14 -14 -14 -14 -14 -13 -13 -13 -13 -13 -13 -13 -13 -13 -13 -13 -13 -13 -13 -13 -13 -13 -14 -14 -14 -14 -13 -13 -14 -14 -14 -14 -13 -13 -13 -13
-13 -13 -12 -11 -12 -13 -13 -14 -14 -14 -14 -14 -14 -14 -14 -14 -13 -13 -14 -14 -13 -13 -13 -14 -13 -13 -13 -14 -14 -13 -14 -13 -14 -14 -13 -14 -14 -13 -14 -13 -13 -13 -13
-12 -12 -12 -12 -12 -13 -13 -14 -14 -14 -15 -14 -14 -14 -14 -14 -14 -14 -14 -14 -14 -14 -14 -14 -14 -14 -14 -13 -13 -14 -14 -14 -14 -13 -13 -13 -14 -14 -14 -13 -14 -14 -13
-13 -13 -13 -13 -13 -12 -13 -13 -14 -14 -14 -14 -15 -15 -15 -14 -14 -14 -14 -14 -14 -14 -14 -14 -14 -14 -14 -14 -14 -14 -14 -14 -14 -13 -13 -14 -13 -14 -14 -14 -14 -13 -13
-12 -12 -12 -12 -13 -13 -13 -13 -13 -14 -14 -14 -14 -15 -15 -15 -15 -15 -15 -14 -14 -15 -15 -15 -15 -14 -14 -14 -14 -14 -14 -14 -14 -14 -14 -14 -14 -14 -14 -14 -14 -14 -14
-12 -13 -13 -13 -12 -12 -12 -13 -13 -13 -13 -14 -14 -14 -15 -15 -16 -16 -15 -15 -15 -15 -15 -15 -15 -15 -15 -14 -14 -14 -15 -14 -14 -14 -14 -14 -14 -14 -14 -14 -14 -14 -14
-13 -13 -13 -13 -13 -13 -12 -12 -13 -14 -14 -14 -14 -14 -14 -15 -15 -16 -15 -15 -15 -15 -15 -15 -15 -15 -15 -15 -15 -15 -15 -15 -15 -15 -15 -15 -15 -14 -14 -14 -14 -14 -14
-14 -14 -14 -14 -14 -14 -14 -14 -15 -14 -14 -14 -15 -14 -14 -14 -15 -16 -16 -16 -16 -16 -15 -15 -15 -15 -15 -15 -15 -15 -15 -16 -16 -16 -16 -15 -15 -15 -15 -15 -14 -14 -14
-13 -14 -14 -15 -15 -15 -15 -15 -15 -15 -15 -15 -15 -15 -14 -14 -15 -15 -16 -16 -16 -16 -16 -15 -15 -15 -15 -15 -15 -16 -16 -16 -16 -16 -16 -16 -16 -16 -16 -16 -15 -15 -15
-13 -14 -15 -15 -15 -15 -15 -15 -15 -15 -16 -16 -16 -16 -15 -15 -15 -15 -16 -15 -16 -16 -16 -16 -16 -16 -16 -16 -16 -16 -16 -16 -17 -17 -17 -17 -17 -17 -16 -16 -16 -16 -16
-14 -15 -15 -15 -16 -16 -16 -17 -17 -17 -17 -16 -16 -16 -16 -16 -16 -15 -15 -16 -16 -16 -16 -16 -16 -16 -16 -16 -17 -16 -16 -16 -17 -17 -17 -17 -17 -17 -17 -17 -17 -17 -16
-15 -15 -16 -16 -16 -17 -17 -18 -19 -19 -19 -18 -17 -17 -16 -16 -17 -16 -16 -16 -16 -17 -17 -17 -17 -17 -17 -17 -17 -16 -17 -16 -16 -17 -17 -17 -17 -17 -17 -17 -17 -17 -17
-16 -16 -16 -16 -17 -17 -17 -17 -18 -19 -19 -19 -19 -18 -18 -18 -18 -18 -18 -18 -17 -18 -18 -18 -18 -18 -18 -18 -18 -17 -17 -17 -17 -18 -18 -18 -18 -17 -17 -17 -17 -17 -17
-17 -16 -16 -17 -17 -17 -17 -18 -18 -19 -19 -19 -19 -19 -19 -19 -19 -19 -19 -19 -18 -18 -18 -19 -18 -18 -18 -18 -18 -18 -18 -18 -18 -18 -18 -18 -18 -18 -18 -17 -17 -17 -17
-17 -17 -17 -17 -17 -18 -18 -18 -19 -20 -20 -20 -20 -20 -20 -19 -19 -20 -20 -20 -20 -20 -20 -19 -19 -19 -19 -19 -19 -19 -19 -19 -19 -18 -18 -18 -18 -18 -18 -18 -18 -18 -17
-18 -18 -18 -18 -18 -18 -18 -19 -20 -21 -21 -21 -21 -21 -21 -21 -20 -20 -20 -20 -20 -20 -20 -20 -19 -19 -20 -20 -20 -19 -20 -19 -19 -19 -19 -19 -19 -19 -19 -18 -18 -18 -18
-18 -19 -19 -19 -19 -20 -20 -21 -21 -22 -22 -22 -22 -22 -22 -22 -22 -22 -21 -21 -21 -21 -21 -20 -20 -19 -20 -20 -20 -20 -20 -20 -20 -20 -19 -19 -19 -19 -19 -19 -19 -18 -18
-19 -19 -20 -20 -21 -21 -21 -22 -22 -22 -23 -23 -23 -23 -23 -23 -23 -22 -22 -22 -22 -22 -22 -21 -21 -21 -21 -20 -20 -20 -20 -20 -20 -20 -20 -21 -20 -20 -19 -20 -19 -19 -19
-21 -21 -21 -22 -21 -22 -22 -23 -23 -23 -23 -23 -23 -24 -24 -24 -24 -23 -23 -23 -23 -23 -23 -23 -22 -22 -22 -21 -21 -22 -21 -21 -22 -21 -21 -21 -21 -21 -20 -20 -20 -20 -20
-21 -22 -22 -22 -22 -22 -23 -23 -24 -24 -24 -24 -24 -24 -24 -24 -24 -24 -24 -24 -24 -24 -23 -23 -23 -23 -23 -23 -22 -23 -22 -22 -22 -23 -22 -22 -21 -21 -21 -20 -20 -20 -20
-22 -23 -23 -23 -23 -24 -24 -23 -24 -24 -24 -24 -25 -25 -25 -25 -25 -24 -24 -24 -24 -24 -24 -24 -24 -24 -23 -23 -23 -23 -23 -23 -23 -23 -23 -23 -22 -21 -21 -21 -21 -21 -21
-23 -24 -24 -23 -24 -24 -24 -24 -24 -25 -25 -25 -25 -25 -25 -25 -25 -25 -25 -25 -25 -24 -24 -24 -24 -24 -24 -24 -24 -24 -24 -24 -25 -24 -24 -24 -23 -22 -22 -22 -22 -21 -21
-23 -24 -24 -24 -24 -24 -25 -25 -25 -25 -25 -26 -26 -26 -25 -25 -25 -25 -25 -25 -25 -25 -25 -24 -24 -24 -24 -24 -24 -25 -25 -25 -25 -25 -24 -24 -24 -23 -22 -22 -22 -21 -21
-24 -24 -24 -25 -25 -25 -25 -26 -25 -25 -26 -26 -26 -25 -25 -26 -26 -25 -25 -25 -25 -25 -25 -25 -24 -24 -24 -25 -26 -25 -25 -25 -25 -25 -25 -24 -24 -23 -23 -23 -23 -23 -22
-25 -25 -26 -25 -26 -25 -26 -26 -26 -26 -26 -26 -26 -26 -26 -26 -26 -26 -26 -26 -26 -26 -26 -25 -25 -24 -24 -25 -26 -25 -25 -25 -25 -25 -25 -24 -24 -24 -24 -24 -23 -24 -24
Height
5822 5818 5815 5812 5810 5810 5813 5815 5815 5815 5815 5816 5814 5813 5813 5813 5812 5812 5810 5810 5809 5807 5808 5806 5807 5806 5806 5807 5810 5812 5812 5813 5815 5816 5817 5819 5819 5820 5822 5823 5824 5825 5826
5814 5810 5808 5803 5801 5802 5805 5807 5809 5809 5810 5810 5809 5809 5807 5807 5807 5807 5806 5804 5802 5801 5802 5802 5801 5801 5802 5803 5805 5806 5806 5807 5808 5809 5811 5812 5814 5814 5816 5817 5819 5820 5820
5805 5808 5798 5788 5798 5795 5799 5800 5802 5803 5804 5804 5805 5804 5802 5800 5801 5800 5800 5799 5798 5797 5796 5797 5797 5797 5797 5797 5798 5798 5799 5800 5801 5802 5803 5805 5806 5808 5810 5811 5812 5813 5814
5805 5799 5803 5797 5794 5792 5791 5793 5794 5793 5796 5799 5798 5797 5797 5795 5794 5793 5793 5792 5792 5791 5790 5789 5790 5791 5791 5791 5791 5792 5793 5794 5794 5795 5796 5797 5799 5801 5802 5804 5805 5806 5807
5799 5796 5793 5783 5783 5784 5786 5785 5787 5786 5788 5790 5790 5789 5790 5789 5787 5786 5785 5784 5784 5783 5783 5782 5782 5783 5782 5784 5785 5785 5785 5786 5787 5788 5788 5790 5791 5792 5793 5795 5796 5798 5799
5794 5790 5787 5782 5782 5784 5782 5782 5780 5777 5780 5781 5779 5780 5780 5780 5780 5779 5778 5777 5775 5775 5774 5775 5773 5774 5775 5775 5776 5776 5777 5777 5778 5779 5781 5782 5783 5784 5785 5786 5788 5789 5790
5788 5787 5784 5783 5781 5779 5774 5773 5768 5770 5770 5773 5770 5771 5771 5769 5770 5770 5770 5769 5768 5767 5766 5765 5765 5764 5766 5767 5767 5768 5768 5768 5769 5771 5771 5772 5774 5776 5777 5778 5780 5781 5782
5784 5779 5777 5775 5772 5769 5766 5762 5762 5764 5763 5764 5762 5764 5762 5761 5760 5761 5760 5759 5759 5759 5758 5758 5757 5756 5756 5758 5758 5759 5759 5760 5761 5761 5762 5764 5765 5766 5768 5769 5770 5771 5773
5774 5772 5768 5765 5764 5763 5762 5760 5758 5756 5756 5754 5756 5755 5754 5752 5750 5752 5751 5751 5750 5749 5748 5747 5747 5746 5747 5747 5748 5749 5749 5750 5750 5752 5753 5754 5755 5756 5757 5759 5760 5761 5762
5765 5762 5761 5759 5757 5755 5754 5753 5751 5748 5747 5746 5746 5744 5742 5742 5742 5741 5740 5740 5739 5737 5737 5736 5735 5736 5736 5737 5737 5736 5738 5739 5739 5740 5741 5742 5744 5745 5746 5747 5748 5750 5751
5754 5750 5747 5747 5746 5746 5743 5742 5739 5737 5735 5734 5733 5733 5731 5729 5729 5729 5729 5726 5725 5725 5725 5725 5725 5724 5725 5726 5728 5727 5727 5727 5727 5728 5729 5731 5732 5733 5734 5735 5736 5737 5739
5746 5743 5739 5735 5732 5730 5729 5727 5726 5726 5724 5723 5721 5719 5718 5718 5716 5715 5713 5716 5714 5714 5713 5713 5712 5712 5713 5716 5715 5715 5717 5716 5718 5718 5719 5720 5721 5722 5723 5724 5724 5725 5725
5739 5737 5733 5730 5727 5723 5720 5717 5714 5712 5710 5709 5707 5706 5704 5702 5701 5701 5700 5701 5701 5700 5700 5700 5700 5700 5701 5703 5704 5705 5705 5705 5706 5707 5707 5708 5709 5710 5710 5712 5712 5712 5712
5730 5728 5724 5720 5716 5713 5708 5703 5700 5698 5696 5695 5693 5691 5690 5688 5687 5685 5684 5684 5685 5688 5687 5686 5687 5688 5689 5692 5691 5691 5694 5694 5694 5695 5696 5697 5696 5697 5698 5699 5699 5700 5700
5720 5718 5714 5709 5704 5698 5694 5690 5686 5683 5681 5679 5678 5676 5674 5672 5672 5671 5670 5668 5669 5669 5672 5672 5674 5674 5674 5677 5678 5678 5679 5680 5680 5682 5683 5683 5683 5684 5685 5686 5686 5687 5687
5708 5704 5700 5696 5691 5686 5681 5675 5671 5667 5664 5663 5661 5660 5658 5656 5656 5656 5654 5653 5653 5652 5653 5655 5659 5660 5659 5660 5662 5664 5667 5665 5667 5669 5669 5669 5670 5670 5671 5672 5673 5673 5674
5695 5690 5686 5680 5675 5670 5666 5660 5654 5651 5649 5647 5646 5645 5644 5642 5640 5640 5639 5638 5637 5636 5635 5639 5639 5645 5644 5643 5646 5650 5648 5651 5652 5654 5655 5656 5657 5658 5658 5658 5659 5659 5660
5681 5676 5672 5667 5661 5656 5650 5645 5642 5638 5635 5633 5632 5632 5631 5628 5627 5627 5626 5625 5624 5622 5621 5621 5624 5625 5624 5626 5629 5631 5631 5635 5636 5636 5638 5639 5642 5643 5643 5645 5646 5646 5647
5665 5659 5653 5650 5646 5641 5637 5633 5629 5626 5623 5621 5620 5619 5618 5616 5615 5615 5614 5613 5611 5609 5607 5608 5609 5611 5607 5609 5611 5611 5611 5616 5618 5616 5620 5623 5624 5627 5628 5630 5631 5632 5634
5648 5643 5639 5635 5632 5627 5623 5618 5615 5613 5611 5609 5607 5606 5605 5603 5602 5602 5600 5600 5598 5597 5594 5591 5594 5597 5592 5592 5591 5590 5592 5596 5597 5599 5602 5603 5605 5608 5612 5615 5617 5616 5619
5634 5629 5624 5620 5615 5612 5608 5605 5602 5600 5598 5595 5593 5592 5592 5590 5588 5587 5586 5586 5584 5582 5582 5577 5576 5581 5578 5575 5573 5573 5573 5577 5578 5580 5584 5585 5589 5593 5597 5599 5602 5601 5604
5619 5614 5609 5604 5600 5599 5595 5591 5588 5585 5583 5581 5580 5578 5578 5576 5574 5573 5570 5569 5569 5568 5566 5564 5561 5562 5562 5559 5557 5556 5556 5558 5563 5565 5567 5570 5573 5577 5583 5582 5586 5587 5588
5605 5600 5596 5591 5586 5584 5581 5578 5574 5572 5570 5568 5566 5565 5564 5563 5560 5558 5556 5554 5553 5552 5551 5549 5547 5545 5545 5543 5540 5539 5540 5544 5548 5549 5552 5557 5558 5565 5567 5567 5571 5572 5574
5590 5586 5582 5577 5573 5569 5567 5565 5562 5560 5557 5555 5553 5551 5549 5547 5544 5542 5539 5538 5537 5535 5533 5532 5530 5529 5527 5525 5523 5524 5526 5529 5535 5536 5539 5543 5543 5549 5552 5553 5557 5558 5561
5575 5570 5566 5563 5560 5557 5556 5554 5551 5549 5545 5542 5539 5536 5533 5530 5526 5523 5522 5520 5519 5517 5516 5515 5513 5511 5509 5506 5506 5510 5514 5517 5522 5524 5526 5529 5531 5533 5537 5541 5542 5544 5546
5560 5555 5553 5552 5549 5547 5544 5541 5539 5536 5533 5528 5525 5520 5517 5513 5508 5504 5502 5500 5499 5498 5498 5498 5497 5496 5494 5493 5495 5499 5503 5506 5510 5511 5514 5517 5518 5522 5525 5527 5529 5531 5534
Wind_Speed
38 41 43 40 40 36 33 34 35 34 34 31 32 33 32 32 32 31 31 32 32 31 26 29 30 33 39 36 33 33 32 32 30 31 30 27 31 27 25 26 25 25 24
41 47 45 38 45 40 36 37 38 38 36 34 34 33 34 32 31 30 32 33 34 33 27 27 27 22 30 30 31 33 32 34 35 34 31 29 27 30 28 28 29 29 28
44 37 50 56 37 41 39 39 41 39 37 36 33 37 36 32 33 30 30 33 34 33 32 28 31 31 31 34 35 35 35 35 35 35 32 31 30 32 34 33 32 32 33
38 46 41 49 41 41 45 43 45 42 39 37 36 41 39 36 34 33 31 33 34 33 31 29 29 30 32 35 35 36 37 35 35 35 34 34 33 33 35 34 35 34 34
29 32 38 40 48 42 49 47 47 49 43 37 40 40 40 39 37 37 35 33 34 34 34 31 31 32 33 34 34 35 37 36 36 36 37 36 36 36 36 36 36 36 36
35 40 46 41 38 39 39 44 54 53 38 44 42 42 44 42 43 40 38 37 36 35 35 34 32 33 34 34 34 35 36 37 38 39 38 38 38 38 38 39 38 37 38
34 36 37 38 26 34 42 46 56 48 41 40 43 46 48 45 42 42 39 36 39 38 38 39 37 35 35 35 36 36 36 37 38 38 38 39 38 38 38 39 39 39 39
37 39 42 42 32 34 38 42 33 27 30 35 45 44 47 47 45 41 40 39 40 41 41 42 41 40 37 37 36 36 37 37 37 37 38 38 38 39 40 40 40 40 40
41 42 42 44 40 41 39 42 24 33 32 28 32 39 37 38 38 41 43 44 44 47 49 46 43 42 42 41 39 38 38 39 40 41 42 42 42 43 43 43 43 43 44
51 45 40 39 41 39 37 40 44 51 48 39 38 42 46 41 40 43 45 46 47 49 50 50 48 46 47 46 48 45 42 41 42 42 43 43 44 44 45 45 45 45 46
56 54 49 44 43 45 46 46 47 49 51 46 46 42 41 43 44 45 47 54 53 51 49 47 44 42 38 36 39 46 48 49 47 46 46 46 46 45 46 46 45 46 48
57 57 58 58 59 54 48 46 45 44 45 46 50 49 47 44 47 48 45 45 51 54 53 52 50 47 46 40 38 39 40 41 46 47 48 48 49 49 48 49 49 49 51
51 53 51 48 51 51 50 48 45 42 43 44 44 47 49 49 46 48 51 51 50 46 44 47 48 47 47 47 45 45 45 44 43 39 39 41 43 46 45 42 43 42 45
47 48 52 55 57 56 57 56 54 52 47 44 46 47 49 49 49 48 48 49 49 46 48 48 48 50 51 52 53 52 51 49 46 45 44 43 43 41 45 46 48 47 49
46 51 56 58 58 58 61 61 60 58 56 54 49 48 53 55 55 55 55 56 54 54 52 56 57 55 56 56 54 55 55 54 49 47 47 48 48 46 46 46 48 50 50
51 56 55 55 58 62 66 70 68 59 54 51 50 48 51 56 59 61 62 63 63 62 62 61 60 60 61 60 60 58 57 59 56 54 53 52 51 51 51 52 53 52 53
46 45 54 56 60 61 67 69 63 57 52 48 43 46 50 52 54 56 58 59 59 60 63 65 67 64 65 65 65 64 62 59 63 62 62 58 55 55 56 57 58 56 54
52 58 61 64 67 66 60 55 55 51 48 47 46 47 47 47 50 52 52 52 53 57 60 61 62 65 63 62 65 65 67 67 67 62 70 65 60 59 57 58 59 58 51
63 66 64 61 59 60 59 53 49 48 48 47 48 49 49 48 49 50 51 51 52 50 51 51 51 53 57 60 64 68 70 67 66 69 68 65 62 61 67 59 58 56 52
62 56 52 52 56 55 52 49 46 45 46 47 48 50 49 49 50 49 50 49 48 49 50 53 53 52 55 58 61 64 66 68 67 68 70 65 64 64 59 60 52 50 48
58 55 55 54 56 57 54 51 48 48 48 49 50 51 50 51 50 50 51 52 53 52 52 54 55 54 55 57 60 63 61 60 60 62 61 66 64 62 60 59 53 47 49
57 56 55 57 54 56 55 53 49 47 48 49 50 51 51 50 51 52 53 53 55 56 56 54 54 54 54 56 57 60 62 59 57 58 55 55 58 52 55 56 54 47 45
58 57 57 58 57 53 51 49 49 47 47 48 50 51 51 51 53 53 52 53 54 56 55 55 55 56 54 56 56 56 57 53 52 50 57 47 49 59 50 53 53 44 45
55 54 55 54 52 49 46 44 43 45 47 48 50 52 54 55 57 56 55 55 55 56 56 55 55 56 56 59 54 54 55 51 50 48 43 45 50 49 52 51 53 48 46
56 54 50 47 46 45 46 47 45 46 47 48 50 52 52 53 55 56 57 57 57 56 56 56 56 58 57 54 48 50 45 47 45 47 48 45 46 46 47 52 51 42 41
53 49 44 43 42 45 44 43 43 45 47 47 47 50 53 55 57 58 59 61 61 60 57 55 55 55 50 38 39 40 41 44 45 47 47 47 47 46 46 47 46 44 42
Wind_Direction
290 276 268 262 260 262 268 270 273 275 275 280 282 277 285 292 287 284 282 283 286 289 283 277 271 269 243 248 248 250 256 263 267 270 275 264 253 244 254 254 254 255 252
283 271 261 269 241 254 261 265 270 275 279 279 279 281 278 284 284 282 280 280 285 290 285 275 275 270 257 256 254 253 257 260 263 262 268 267 261 246 258 255 257 259 259
278 306 257 239 258 267 266 261 264 268 273 278 280 280 277 276 281 277 277 277 280 285 286 277 270 268 264 261 259 261 261 262 263 263 262 259 256 252 260 260 257 257 258
279 280 300 279 256 255 273 259 259 259 267 272 278 279 276 276 277 278 274 273 276 282 285 279 271 265 263 261 260 261 264 262 261 260 259 260 259 255 253 257 260 259 257
314 319 341 317 259 271 274 265 265 266 265 261 271 277 274 274 276 276 275 268 271 276 280 278 273 267 265 264 263 260 262 263 262 260 259 260 261 260 260 259 259 259 257
326 329 331 328 326 317 293 287 282 272 274 265 272 277 276 273 275 275 273 264 264 265 270 275 272 268 265 263 263 262 260 260 261 261 262 262 261 260 259 259 257 255 255
315 303 315 318 311 321 316 308 291 290 285 271 269 279 280 280 270 274 267 264 264 263 265 271 268 266 266 264 263 262 262 261 261 263 263 262 263 263 262 261 261 260 258
305 308 305 310 300 312 303 304 318 280 294 294 269 286 290 283 274 265 262 262 263 262 265 272 271 264 262 263 263 262 261 262 262 262 262 261 262 262 260 260 261 261 261
304 302 303 306 303 309 307 303 293 285 285 286 278 279 286 279 274 268 266 263 262 264 266 268 270 271 266 262 259 258 257 259 260 259 258 258 258 258 259 258 260 261 262
301 301 299 295 295 291 289 290 291 291 295 289 286 281 284 283 276 272 264 262 260 261 263 266 268 270 270 264 263 255 253 254 253 255 256 256 256 256 257 259 260 261 261
299 302 303 303 298 294 294 292 291 292 290 287 284 278 279 279 277 275 273 264 257 258 259 262 267 268 267 269 274 274 268 257 252 252 254 254 255 256 258 258 259 261 262
295 297 301 306 306 306 303 300 297 291 287 284 280 278 276 272 274 275 270 268 264 259 259 261 264 263 266 266 265 266 272 273 268 267 266 265 265 265 265 266 266 265 264
295 298 304 308 307 304 302 299 294 286 283 279 272 270 271 271 263 265 265 267 267 269 269 263 266 268 269 269 265 264 262 262 263 262 265 267 266 265 264 263 262 265 266
295 299 301 305 306 304 301 299 297 294 291 283 275 271 266 265 265 262 261 262 264 261 260 264 266 265 265 263 266 265 263 262 260 261 261 262 264 268 265 263 262 260 263
301 299 298 303 302 300 297 295 296 295 292 290 281 269 263 261 262 262 261 262 261 260 255 256 257 258 259 258 262 264 265 264 262 261 261 261 261 259 261 262 263 263 262
301 299 301 301 298 294 295 296 298 297 293 288 280 272 263 262 262 261 262 263 263 262 261 260 258 259 262 263 262 261 264 264 265 264 263 264 266 266 267 267 264 264 262
308 299 299 296 293 291 292 296 297 296 291 287 279 268 265 264 265 266 267 268 269 269 269 268 266 263 264 265 265 261 261 264 266 266 267 266 268 270 271 267 267 268 266
293 295 297 296 296 296 294 294 293 290 286 283 277 270 268 268 267 268 269 272 272 271 270 268 266 266 270 269 266 265 264 260 263 266 265 263 266 265 270 266 265 268 268
294 294 297 302 299 295 292 294 291 286 278 277 275 272 270 268 268 267 268 270 270 269 268 269 269 269 271 270 268 265 265 264 261 263 266 266 268 261 265 270 267 264 263
297 301 301 300 297 292 293 293 287 282 278 275 273 273 272 270 269 269 270 272 276 276 276 276 272 273 273 273 271 270 269 267 266 261 259 262 265 265 266 268 262 263 264
302 300 297 295 294 294 296 291 285 282 280 274 274 275 276 275 275 273 273 274 278 281 281 279 278 276 278 280 273 267 268 267 266 264 263 261 262 263 263 260 260 258 262
298 294 292 292 291 288 291 291 286 282 278 274 273 274 275 276 276 276 278 278 282 281 281 281 278 279 277 281 277 265 265 265 265 265 261 261 261 265 262 264 254 255 260
290 289 291 291 291 291 290 288 285 283 279 276 274 274 274 276 278 280 279 280 279 279 278 277 277 278 276 278 280 268 262 257 258 265 260 262 258 257 262 257 253 255 259
287 286 289 291 288 288 288 285 286 285 281 279 279 279 280 281 282 280 279 279 278 279 277 278 278 280 282 283 271 259 257 255 259 263 259 266 257 255 256 255 253 256 259
285 288 290 288 288 289 284 287 287 286 286 286 285 285 285 285 282 280 277 276 275 275 276 280 282 282 285 280 261 252 251 254 255 262 260 261 260 249 248 251 257 257 256
289 291 288 285 286 286 286 287 291 292 289 287 286 286 286 285 283 281 279 276 272 269 272 277 280 280 279 262 252 246 251 253 257 259 253 261 258 256 256 252 251 251 254